Regional Weather Roundup
Issued by NWS

Home | Current Version | Previous Version | Text Only | Print | Product List | Glossary Off
Versions: 1 2 3 4 5 6 7 8 9 10 11 12 13 14 15 16 17 18 19 20 21 22 23 24 25 26 27 28 29 30 31 32 33 34 35 36 37 38 39 40 41 42 43 44 45 46 47 48 49 50

046
ASUS43 KLSX 301410
RWRMO

WEATHER SUMMARY FOR MISSOURI
NATIONAL WEATHER SERVICE SPRINGFIELD MO
900 AM CDT SAT JUL 30 2016

NOTE: "FAIR" INDICATES FEW OR NO CLOUDS BELOW 12,000 FEET WITH NO
       SIGNIFICANT WEATHER AND/OR OBSTRUCTIONS TO VISIBILITY.
       CURRENT SKY AND/OR WEATHER CONDITIONS ARE NOT AVAILABLE FOR
       CHILLICOTHE AND FARMINGTON.

MOZ001>031-035>038-043-044-053-054-301500-
...NORTHERN AND WESTERN MISSOURI...

CITY           SKY/WX    TMP DP  RH WIND       PRES   REMARKS
KANSAS CTY INT MOSUNNY   71  63  75 E6        30.03R
KANSAS C DTWN  MOSUNNY   73  64  73 E5        30.02R
LEE`S SUMMIT   SUNNY     72  65  78 NE6       30.03R
ST JOSEPH      SUNNY     71  65  81 N3        30.03R
CHILLICOTHE      N/A     73  66  78 N3        30.03S
KIRKSVILLE     PTSUNNY   73  65  75 N7        30.02R

$$
MOZ066>068-077>081-088>096-101>105-301500-
...SOUTHWEST MISSOURI...

CITY           SKY/WX    TMP DP  RH WIND       PRES   REMARKS
SPRINGFIELD    SUNNY     76  70  82 CALM      30.03R
JOPLIN         SUNNY     79  71  76 VRB3      30.02R
BRANSON        PTSUNNY   73  73 100 CALM      30.05S FOG

$$
MOZ032>034-039>042-045>050-055>058-069>072-301500-
...CENTRAL MISSOURI...

CITY           SKY/WX    TMP DP  RH WIND       PRES   REMARKS
COLUMBIA       SUNNY     73  67  81 CALM      30.02R
JEFFERSON CITY SUNNY     73  68  84 CALM      30.01R
ROLLA          SUNNY     74  68  81 SW5       30.02R
SEDALIA        SUNNY     74  66  76 E3        30.03S
WHITEMAN AFB   MOSUNNY   71  70  95 E2        30.01S
OSAGE BEACH    PTSUNNY   73  70  90 CALM      30.03R

$$
MOZ051-052-059>065-301500-
...EAST CENTRAL MISSOURI...

CITY           SKY/WX    TMP DP  RH WIND       PRES   REMARKS
ST LOUIS INTL  MOSUNNY   79  67  66 NW5       30.00R
SPIRIT OF STL  SUNNY     76  68  76 CALM      29.99R
ST CHARLES     SUNNY     76  67  73 W5        29.98R

$$
MOZ072>076-082>087-097>100-106>115-301500-
...SOUTH CENTRAL AND SOUTHEAST MISSOURI...

CITY           SKY/WX    TMP DP  RH WIND       PRES   REMARKS
CAPE GIRARDEAU CLOUDY    71  70  96 SW3       29.99S FOG
FARMINGTON     SUNNY     77  70  79 VRB3      30.02R
POPLAR BLUFF   CLOUDY    72  70  93 W3        30.00S FOG
WEST PLAINS    SUNNY     78  69  73 CALM      30.05R

$$




USA.gov is the U.S. government's official web portal to all federal, state and local government web resources and services.